�������l�o���
Date,Time,MP-1(��Sv/h),MP-2(��Sv/h),MP-3(��Sv/h),MP-4(��Sv/h),MP-5(��Sv/h),MP-6(��Sv/h),MP-7(��Sv/h),MP-8(��Sv/h),����,����(m/s),���J
2013/01/14,00:00,3.3,5.8,6.9,6.4,6.5,3.1,7.2,4.2,�k�k��,2.1,��
2013/01/14,00:10,3.3,5.8,6.9,6.4,6.5,3.1,7.2,4.2,�k,2.8,��
2013/01/14,00:20,3.3,5.8,6.9,6.4,6.5,3.1,7.2,4.2,�k�k��,2.9,��
2013/01/14,00:30,3.3,5.8,6.9,6.4,6.5,3.1,7.2,4.2,�k,3.5,��
2013/01/14,00:40,3.3,5.8,6.9,6.4,6.5,3.1,7.2,4.2,�k,4.5,��
2013/01/14,00:50,3.3,5.8,6.9,6.4,6.5,3.1,7.2,4.2,�k,4.9,��
2013/01/14,01:00,3.3,5.8,6.9,6.4,6.5,3.1,7.2,4.2,�k,5.1,��
2013/01/14,01:10,3.3,5.8,6.9,6.4,6.5,3.1,7.2,4.2,�k,5.2,��
2013/01/14,01:20,3.3,5.8,6.9,6.4,6.5,3.1,7.2,4.2,�k,4.8,��
2013/01/14,01:30,3.3,5.8,6.9,6.4,6.5,3.1,7.2,4.2,�k,4.7,��
2013/01/14,01:40,3.3,5.8,6.9,6.4,6.5,3.1,7.2,4.2,�k,4.4,��
2013/01/14,01:50,3.3,5.8,6.9,6.4,6.5,3.1,7.2,4.2,�k,4.7,��
2013/01/14,02:00,3.3,5.8,6.9,6.4,6.5,3.1,7.2,4.2,�k,4.3,��
2013/01/14,02:10,3.3,5.8,6.9,6.4,6.5,3.1,7.2,4.2,�k,4.5,��
2013/01/14,02:20,3.3,5.8,6.9,6.4,6.5,3.1,7.2,4.2,�k�k��,4.6,��
2013/01/14,02:30,3.3,5.8,6.9,6.4,6.5,3.1,7.2,4.2,�k,4.6,��
2013/01/14,02:40,3.3,5.8,6.9,6.4,6.5,3.1,7.2,4.2,�k�k��,4.7,��
2013/01/14,02:50,3.3,5.8,6.9,6.4,6.5,3.1,7.2,4.2,�k�k��,4.5,��
2013/01/14,03:00,3.3,5.8,6.9,6.4,6.5,3.1,7.2,4.2,�k�k��,4.8,��
2013/01/14,03:10,3.3,5.8,6.9,6.4,6.5,3.1,7.2,4.2,�k�k��,5.1,��
2013/01/14,03:20,3.3,5.8,6.9,6.4,6.5,3.1,7.2,4.2,�k��,5.7,��
2013/01/14,03:30,3.3,5.8,6.9,6.4,6.5,3.1,7.2,4.2,�k�k��,5.3,�L
2013/01/14,03:40,3.3,5.8,6.9,6.4,6.5,3.1,7.2,4.2,�k�k��,6.1,�L
2013/01/14,03:50,3.3,5.8,6.9,6.4,6.5,3.1,7.2,4.2,�k�k��,6.3,�L
2013/01/14,04:00,3.3,5.8,6.9,6.4,6.5,3.1,7.2,4.2,�k�k��,6.7,�L
2013/01/14,04:10,3.3,5.8,6.9,6.4,6.5,3.1,7.2,4.2,�k�k��,6.5,�L
2013/01/14,04:20,3.3,5.8,6.9,6.4,6.5,3.1,7.2,4.2,�k��,6.3,�L
2013/01/14,04:30,3.3,5.8,6.9,6.4,6.5,3.1,7.2,4.2,�k��,6.9,�L
2013/01/14,04:40,3.3,5.8,6.9,6.4,6.5,3.1,7.2,4.2,�k��,6.3,�L
2013/01/14,04:50,3.3,5.8,6.9,6.4,6.5,3.1,7.2,4.2,�k��,7.7,�L
2013/01/14,05:00,3.3,5.8,6.9,6.4,6.5,3.1,7.2,4.2,�k�k��,7.4,�L
2013/01/14,05:10,3.3,5.8,6.9,6.4,6.5,3.1,7.2,4.2,�k�k��,7.2,�L
2013/01/14,05:20,3.3,5.8,6.9,6.4,6.5,3.1,7.2,4.2,�k�k��,7.1,�L
2013/01/14,05:30,3.3,5.8,6.9,6.4,6.5,3.1,7.2,4.2,�k�k��,7.4,�L
2013/01/14,05:40,3.3,5.8,6.9,6.4,6.4,3.1,7.2,4.2,�k�k��,6.6,�L
2013/01/14,05:50,3.3,5.8,6.8,6.4,6.5,3.1,7.2,4.2,�k��,7.1,�L
2013/01/14,06:00,3.3,5.8,6.8,6.4,6.4,3.1,7.2,4.2,�k�k��,7.4,�L
2013/01/14,06:10,3.3,5.8,6.8,6.4,6.4,3.1,7.2,4.2,�k�k��,7.4,�L
2013/01/14,06:20,3.3,5.8,6.8,6.3,6.4,3.1,7.2,4.2,�k�k��,9.0,�L
2013/01/14,06:30,3.3,5.8,6.8,6.3,6.4,3.1,7.2,4.2,�k�k��,7.7,�L
2013/01/14,06:40,3.3,5.8,6.8,6.3,6.4,3.1,7.2,4.2,�k�k��,8.8,�L
2013/01/14,06:50,3.3,5.8,6.8,6.3,6.4,3.1,7.2,4.2,�k�k��,7.9,�L
2013/01/14,07:00,3.3,5.8,6.8,6.3,6.4,3.1,7.2,4.2,�k�k��,7.2,�L
2013/01/14,07:10,3.3,5.7,6.8,6.3,6.4,3.0,7.2,4.2,�k�k��,7.4,�L
2013/01/14,07:20,3.3,5.7,6.7,6.3,6.3,3.0,7.1,4.2,�k�k��,8.3,�L
2013/01/14,07:30,3.2,5.7,6.7,6.3,6.3,3.0,7.1,4.2,�k�k��,7.1,�L
2013/01/14,07:40,3.2,5.6,6.6,6.2,6.2,3.0,7.1,4.2,�k�k��,7.8,�L
2013/01/14,07:50,3.2,5.6,6.6,6.2,6.2,3.0,7.1,4.2,�k�k��,7.9,�L
2013/01/14,08:00,3.2,5.6,6.6,6.2,6.2,3.0,7.0,4.2,�k�k��,8.0,�L
2013/01/14,08:10,3.2,5.6,6.5,6.2,6.2,3.0,7.0,4.1,�k�k��,7.7,�L
2013/01/14,08:20,3.2,5.5,6.5,6.2,6.1,3.0,7.0,4.1,�k�k��,6.7,�L
2013/01/14,08:30,3.2,5.5,6.4,6.1,6.1,3.0,7.0,4.1,�k�k��,6.4,�L
2013/01/14,08:40,3.2,5.4,6.4,6.1,6.0,2.9,6.9,4.1,�k�k��,7.8,�L
2013/01/14,08:50,3.2,5.4,6.3,6.0,6.0,2.9,6.9,4.1,�k�k��,7.2,�L
2013/01/14,09:00,3.2,5.4,6.3,6.0,5.9,2.9,6.9,4.1,�k�k��,7.2,�L
2013/01/14,09:10,3.2,5.3,6.2,6.0,5.9,2.9,6.8,4.1,�k�k��,6.3,�L
2013/01/14,09:20,3.1,5.3,6.2,6.0,5.8,2.9,6.6,4.0,�k�k��,7.1,�L
2013/01/14,09:30,3.1,5.3,6.1,5.9,5.8,2.9,6.4,4.0,�k�k��,7.2,�L
2013/01/14,09:40,3.1,5.2,6.1,5.9,5.7,2.8,6.4,4.0,�k��,7.7,�L
2013/01/14,09:50,3.1,5.2,6.0,5.9,5.7,2.8,6.3,4.0,�k�k��,7.1,�L
2013/01/14,10:00,3.1,5.2,6.0,5.9,5.7,2.8,6.3,4.0,�k�k��,7.4,�L
2013/01/14,10:10,3.1,5.1,6.0,5.8,5.6,2.8,6.3,4.0,�k�k��,8.9,�L
2013/01/14,10:20,3.1,5.1,5.9,5.8,5.6,2.8,6.3,4.0,�k�k��,9.1,�L
2013/01/14,10:30,3.1,5.1,5.9,5.8,5.6,2.8,6.3,4.0,�k�k��,9.3,�L
2013/01/14,10:40,3.1,5.1,5.9,5.8,5.6,2.8,6.3,4.0,�k�k��,9.7,�L
2013/01/14,10:50,3.1,5.1,5.8,5.8,5.6,2.8,6.2,4.0,�k�k��,8.6,�L
2013/01/14,11:00,3.0,5.1,5.8,5.7,5.5,2.8,6.2,4.0,�k�k��,8.5,�L
2013/01/14,11:10,3.0,5.0,5.8,5.7,5.5,2.8,6.2,4.0,�k�k��,8.6,�L
2013/01/14,11:20,3.0,5.0,5.8,5.7,5.5,2.8,6.2,3.9,�k�k��,8.3,�L
2013/01/14,11:30,3.0,5.0,5.7,5.7,5.5,2.8,6.2,3.9,�k�k��,9.3,�L
2013/01/14,11:40,3.0,5.0,5.7,5.7,5.4,2.7,6.2,3.9,�k�k��,8.8,�L
2013/01/14,11:50,3.0,5.0,5.7,5.6,5.4,2.7,6.2,3.9,�k�k��,10.1,�L
2013/01/14,12:00,3.0,4.9,5.7,5.6,5.4,2.7,6.2,3.9,�k�k��,9.6,�L
2013/01/14,12:10,3.0,4.9,5.6,5.6,5.4,2.7,6.2,3.9,�k�k��,10.4,�L
2013/01/14,12:20,3.0,4.9,5.6,5.6,5.3,2.7,6.2,3.9,�k�k��,10.1,�L
2013/01/14,12:30,3.0,4.9,5.6,5.6,5.3,2.7,6.1,3.9,�k�k��,9.6,�L
2013/01/14,12:40,3.0,4.8,5.5,5.5,5.3,2.7,6.1,3.9,�k�k��,9.7,�L
2013/01/14,12:50,3.0,4.8,5.5,5.5,5.3,2.7,6.1,3.9,�k�k��,10.2,�L
2013/01/14,13:00,2.9,4.8,5.5,5.5,5.2,2.7,6.1,3.9,�k�k��,10.7,�L
2013/01/14,13:10,2.9,4.8,5.4,5.5,5.2,2.7,6.1,3.9,�k�k��,11.6,�L
2013/01/14,13:20,2.9,4.7,5.4,5.4,5.2,2.7,6.0,3.9,�k�k��,9.9,�L
2013/01/14,13:30,2.9,4.7,5.3,5.4,5.1,2.7,6.0,3.8,�k�k��,9.9,�L
2013/01/14,13:40,2.9,4.7,5.3,5.4,5.1,2.6,6.0,3.8,�k�k��,10.5,�L
2013/01/14,13:50,2.9,4.7,5.2,5.3,5.0,2.6,6.0,3.8,�k�k��,9.7,�L
2013/01/14,14:00,2.9,4.6,5.2,5.3,5.0,2.6,6.0,3.8,�k�k��,11.0,�L
2013/01/14,14:10,2.8,4.6,5.1,5.3,5.0,2.6,5.9,3.8,�k�k��,9.4,�L
2013/01/14,14:20,2.8,4.5,5.1,5.2,4.9,2.6,5.9,3.8,�k�k��,9.7,�L
2013/01/14,14:30,2.8,4.5,5.0,5.2,4.8,2.5,5.8,3.7,�k,9.0,�L
2013/01/14,14:40,2.8,4.4,4.9,5.1,4.8,2.5,5.8,3.7,�k,9.3,�L
2013/01/14,14:50,2.7,4.4,4.8,5.0,4.7,2.5,5.7,3.7,�k�k��,9.9,�L
2013/01/14,15:00,2.7,4.3,4.8,5.0,4.6,2.5,5.7,3.7,�k,7.4,�L
2013/01/14,15:10,2.7,4.2,4.7,4.9,4.6,2.4,5.6,3.6,�k,8.8,�L
2013/01/14,15:20,2.6,4.2,4.6,4.9,4.5,2.4,5.6,3.6,�k�k��,7.1,�L
2013/01/14,15:30,2.6,4.1,4.5,4.8,4.4,2.4,5.5,3.6,�k,8.6,�L
2013/01/14,15:40,2.6,4.1,4.5,4.7,4.3,2.4,5.5,3.6,�k,7.7,�L
2013/01/14,15:50,2.5,4.0,4.4,4.7,4.3,2.3,5.4,3.5,�k�k��,9.1,�L
2013/01/14,16:00,2.5,3.9,4.3,4.6,4.2,2.3,5.4,3.5,�k,7.8,�L
2013/01/14,16:10,2.5,3.9,4.3,4.6,4.2,2.3,5.3,3.5,�k�k��,8.5,�L
2013/01/14,16:20,2.5,3.9,4.2,4.5,4.1,2.3,5.3,3.5,�k,7.7,�L
2013/01/14,16:30,2.5,3.8,4.2,4.5,4.1,2.3,5.2,3.5,�k�k��,9.3,�L
2013/01/14,16:40,2.4,3.8,4.2,4.5,4.0,2.2,5.2,3.5,�k�k��,10.1,�L
2013/01/14,16:50,2.4,3.8,4.1,4.4,4.0,2.2,5.2,3.5,�k,8.8,�L
2013/01/14,17:00,2.4,3.7,4.1,4.4,4.0,2.2,5.2,3.5,�k�k��,11.0,�L
2013/01/14,17:10,2.4,3.7,4.1,4.4,3.9,2.3,5.2,3.5,�k,8.2,�L
2013/01/14,17:20,2.4,3.7,4.0,4.4,3.9,2.3,5.1,3.5,�k�k��,10.1,�L
2013/01/14,17:30,2.4,3.7,4.0,4.3,3.9,2.3,5.1,3.5,�k�k��,7.7,�L
2013/01/14,17:40,2.4,3.6,4.0,4.3,3.9,2.2,5.1,3.5,�k�k��,10.7,�L
2013/01/14,17:50,2.3,3.6,4.0,4.3,3.9,2.2,5.1,3.5,�k�k��,9.3,�L
2013/01/14,18:00,2.3,3.6,4.0,4.3,3.9,2.2,5.1,3.4,�k�k��,11.6,�L
2013/01/14,18:10,2.3,3.7,4.0,4.3,3.9,2.2,5.1,3.4,�k�k��,9.6,�L
2013/01/14,18:20,2.3,3.7,3.9,4.3,3.9,2.2,5.1,3.4,�k�k��,10.7,�L
2013/01/14,18:30,2.3,3.7,3.9,4.3,3.9,2.2,5.1,3.4,�k�k��,9.4,�L
2013/01/14,18:40,2.3,3.7,3.9,4.3,3.9,2.2,5.1,3.4,�k�k��,9.6,�L
2013/01/14,18:50,2.3,3.7,3.9,4.3,3.9,2.2,5.1,3.4,�k,9.4,�L
2013/01/14,19:00,2.3,3.7,3.9,4.3,3.9,2.2,5.1,3.4,�k,9.6,�L
2013/01/14,19:10,2.3,3.6,3.9,4.3,3.9,2.2,5.1,3.4,�k�k��,9.4,�L
2013/01/14,19:20,2.3,3.6,3.9,4.3,3.9,2.2,5.1,3.4,�k�k��,9.3,�L
2013/01/14,19:30,2.3,3.6,3.9,4.3,3.8,2.2,5.1,3.4,�k�k��,8.5,�L
2013/01/14,19:40,2.3,3.6,3.9,4.2,3.8,2.2,5.0,3.4,�k�k��,10.7,�L
2013/01/14,19:50,2.3,3.6,3.9,4.2,3.8,2.2,5.0,3.4,�k�k��,9.3,�L
2013/01/14,20:00,2.3,3.6,3.8,4.2,3.8,2.2,5.0,3.4,�k�k��,10.4,�L
2013/01/14,20:10,2.3,3.6,3.8,4.2,3.8,2.2,5.0,3.4,�k�k��,9.3,�L
2013/01/14,20:20,2.3,3.6,3.8,4.2,3.8,2.2,5.0,3.4,�k�k��,11.0,�L
2013/01/14,20:30,2.3,3.6,3.8,4.2,3.8,2.2,5.0,3.4,�k�k��,11.8,�L
2013/01/14,20:40,2.3,3.6,3.8,4.2,3.8,2.2,5.0,3.4,�k�k��,11.3,�L
2013/01/14,20:50,2.3,3.6,3.8,4.2,3.8,2.2,5.0,3.4,�k�k��,10.1,�L
2013/01/14,21:00,2.2,3.6,3.8,4.2,3.8,2.2,5.0,3.4,�k�k��,11.6,�L
2013/01/14,21:10,2.2,3.6,3.8,4.2,3.8,2.2,5.1,3.4,�k�k��,11.3,�L
2013/01/14,21:20,2.2,3.6,3.8,4.2,3.8,2.2,5.1,3.4,�k�k��,9.9,�L
2013/01/14,21:30,2.2,3.6,3.8,4.2,3.8,2.2,5.2,3.4,�k�k��,9.0,�L
2013/01/14,21:40,2.2,3.6,3.8,4.2,3.8,2.2,5.2,3.4,�k�k��,9.0,�L
2013/01/14,21:50,2.2,3.6,3.8,4.2,3.8,2.2,5.2,3.4,�k�k��,9.9,��
2013/01/14,22:00,2.2,3.6,3.8,4.2,3.8,2.2,5.2,3.4,�k�k��,9.4,�L
2013/01/14,22:10,2.2,3.6,3.8,4.2,3.8,2.2,5.2,3.4,�k�k��,11.2,��
2013/01/14,22:20,2.2,3.6,3.8,4.2,3.8,2.2,5.2,3.4,�k�k��,10.7,�L
2013/01/14,22:30,2.2,3.6,3.8,4.2,3.8,2.2,5.2,3.4,�k�k��,8.6,��
2013/01/14,22:40,2.2,3.6,3.8,4.2,3.8,2.2,5.2,3.4,�k�k��,9.4,��
2013/01/14,22:50,2.2,3.6,3.8,4.2,3.8,2.2,5.2,3.4,�k�k��,8.2,�L
2013/01/14,23:00,2.2,3.6,3.8,4.2,3.8,2.2,5.2,3.4,�k�k��,11.3,�L
2013/01/14,23:10,2.2,3.6,3.8,4.2,3.8,2.2,5.2,3.4,�k�k��,8.5,��
2013/01/14,23:20,2.2,3.6,3.8,4.2,3.8,2.2,5.2,3.4,�k��,11.3,�L
2013/01/14,23:30,2.2,3.6,3.8,4.2,3.8,2.2,5.2,3.4,�k�k��,9.0,�L
2013/01/14,23:40,2.2,3.6,3.8,4.2,3.8,2.2,5.2,3.4,�k��,8.8,�L
2013/01/14,23:50,2.2,3.6,3.8,4.2,3.8,2.2,5.2,3.4,�k�k��,8.8,��
